FW2278 Weather Reports


time (UTC)temp
F
wind
direction
speed
knots
gust
knots
rain 1hr
in
rain 24hr
in
rain mn
in
humidity
%
barometer
mb
20260505084804 60 112 0.0 0.0 0.00 0.01 0.00 78 1021.1
20260505083304 62 112 0.0 0.0 0.00 0.01 0.00 75 1020.9
20260505082305 63 112 0.0 0.0 0.00 0.01 0.00 73 1020.8
20260505081804 63 112 0.0 0.0 0.00 0.01 0.00 72 1020.7
20260505081304 63 112 0.0 0.0 0.00 0.01 0.00 71 1020.6
20260505080804 64 112 0.0 0.0 0.00 0.01 0.00 70 1020.6
20260505080303 64 112 0.0 0.0 0.00 0.01 0.00 69 1020.5
20260505075804 65 112 0.0 0.0 0.00 0.01 0.00 68 1020.4
20260505075304 65 112 0.0 0.0 0.00 0.01 0.00 67 1020.3
20260505074304 67 112 0.0 0.0 0.00 0.01 0.00 64 1020.1
20260505073804 67 112 0.0 1.7 0.00 0.01 0.00 63 1020.1
20260505073304 67 112 0.9 1.7 0.00 0.01 0.00 62 1020.0
20260505072305 68 109 0.0 0.0 0.00 0.01 0.00 61 1019.9
20260505071804 68 109 0.0 0.0 0.00 0.01 0.00 62 1019.8
20260505071304 69 109 0.0 0.0 0.00 0.01 0.00 62 1019.6
20260505070804 70 109 0.0 0.0 0.00 0.01 0.00 59 1019.5
20260505065804 71 105 0.9 2.6 0.00 0.01 0.00 57 1019.3
20260505065304 71 121 1.7 2.6 0.00 0.01 0.00 54 1019.2
20260505064804 72 188 0.0 2.6 0.00 0.01 0.00 53 1019.1
20260505064304 72 198 0.9 2.6 0.00 0.01 0.00 47 1019.0
20260505063804 73 201 0.0 0.0 0.00 0.01 0.00 45 1019.0
20260505063304 73 201 0.0 0.0 0.00 0.01 0.00 45 1018.9
20260505062804 73 201 0.0 0.0 0.00 0.01 0.00 47 1018.8
20260505062304 74 201 0.0 0.0 0.00 0.01 0.00 45 1018.8
20260505061803 74 201 0.0 0.0 0.00 0.01 0.00 44 1018.9
20260505061304 74 201 0.0 0.0 0.00 0.01 0.00 44 1018.8
20260505060804 74 201 0.0 0.0 0.00 0.01 0.00 44 1018.8
20260505060304 74 201 0.0 0.0 0.00 0.01 0.00 45 1018.8
20260505055804 74 201 0.0 0.0 0.00 0.01 0.00 46 1018.7
20260505055304 74 201 0.9 5.2 0.00 0.01 0.00 45 1018.7
20260505054804 74 228 2.6 5.2 0.00 0.01 0.00 44 1018.7
20260505054304 74 286 2.6 6.1 0.00 0.01 0.00 44 1018.7
20260505053804 74 206 2.6 4.3 0.00 0.01 0.00 44 1018.7
20260505053304 75 243 2.6 5.2 0.00 0.01 0.00 43 1018.6
20260505052804 75 217 2.6 5.2 0.00 0.01 0.00 42 1018.7
20260505052304 75 283 1.7 10.4 0.00 0.01 0.00 44 1018.7
20260505051304 75 220 0.0 0.0 0.00 0.01 0.00 44 1018.6
20260505050804 75 221 0.0 4.3 0.00 0.01 0.00 43 1018.5
20260505050304 74 234 2.6 4.3 0.00 0.01 0.00 43 1018.6
20260505040804 74 289 0.0 6.1 0.00 0.01 0.00 47 1018.2
20260505040304 74 302 0.9 4.3 0.00 0.01 0.00 46 1018.1
20260505035304 74 310 4.3 11.3 0.00 0.01 0.00 47 1018.1
20260505034304 74 211 1.7 10.4 0.00 0.01 0.00 47 1018.2
20260505033303 73 284 2.6 8.7 0.00 0.01 0.00 48 1018.3
20260505032804 73 190 0.0 2.6 0.00 0.01 0.00 49 1018.3
20260505032305 72 189 2.6 7.8 0.00 0.01 0.00 49 1018.4
20260505030803 73 250 3.5 7.8 0.00 0.01 0.00 50 1018.4
20260505030304 72 217 2.6 5.2 0.00 0.01 0.00 52 1018.5
20260505025804 72 240 2.6 8.7 0.00 0.01 0.00 51 1018.6
20260505024804 72 239 1.7 10.4 0.00 0.01 0.00 54 1018.6
20260505023803 72 246 0.9 7.8 0.00 0.01 0.00 52 1018.6
20260505023304 72 266 0.9 2.6 0.00 0.01 0.00 53 1018.6
20260505022804 71 258 1.7 7.0 0.00 0.01 0.00 53 1018.7
20260505021303 71 245 1.7 8.7 0.00 0.01 0.00 54 1019.0
20260505020805 71 251 5.2 7.8 0.00 0.01 0.00 54 1019.0
20260505020304 71 256 4.3 12.2 0.00 0.02 0.00 53 1019.0
20260505015804 71 288 1.7 6.1 0.00 0.02 0.00 56 1019.1
20260505015304 71 297 2.6 7.8 0.00 0.02 0.00 55 1019.2
20260505014803 70 267 0.9 7.8 0.00 0.03 0.00 56 1019.3
20260505014304 70 235 4.3 7.8 0.00 0.05 0.00 56 1019.4
20260505013803 70 230 2.6 7.8 0.00 0.07 0.00 57 1019.4
20260505013303 69 283 2.6 7.0 0.00 0.07 0.00 57 1019.4
20260505012804 69 214 2.6 6.1 0.00 0.08 0.00 58 1019.6
20260505011803 69 245 4.3 8.7 0.00 0.10 0.00 58 1019.6
20260505011304 69 256 2.6 7.0 0.00 0.11 0.00 60 1019.7
20260505010304 68 243 5.2 13.0 0.00 0.12 0.00 59 1019.9
20260505005803 68 236 6.1 12.2 0.00 0.13 0.00 59 1019.9
20260505005304 68 241 5.2 14.8 0.00 0.13 0.00 61 1020.1
20260505004804 68 219 4.3 10.4 0.00 0.15 0.00 61 1020.1
20260505003804 67 227 5.2 10.4 0.00 0.17 0.00 61 1020.1
20260505003304 67 246 1.7 12.2 0.00 0.17 0.00 62 1020.1
20260505002804 67 240 3.5 11.3 0.00 0.18 0.00 61 1020.1
20260505002304 67 265 6.1 13.0 0.00 0.20 0.00 61 1020.2
20260505001304 66 254 3.5 13.0 0.00 0.20 0.00 63 1020.3
20260505000804 66 230 4.3 15.6 0.00 0.20 0.00 65 1020.3
20260505000304 66 260 5.2 12.2 0.00 0.20 0.00 65 1020.3
20260504235804 66 297 2.6 10.4 0.00 0.20 0.00 68 1020.2
20260504235305 65 309 0.9 4.3 0.00 0.20 0.00 70 1020.4
20260504234804 65 304 3.5 7.8 0.00 0.21 0.00 69 1020.5
20260504234304 65 237 5.2 10.4 0.00 0.21 0.00 69 1020.3
20260504233804 64 260 4.3 10.4 0.00 0.23 0.00 71 1020.4
20260504232304 64 262 1.7 4.3 0.00 0.24 0.00 72 1020.6
20260504231804 64 288 1.7 5.2 0.00 0.24 0.00 72 1020.6
20260504231304 63 278 4.3 7.8 0.00 0.24 0.00 73 1020.5
20260504230804 63 264 2.6 6.1 0.00 0.24 0.00 75 1020.4
20260504225804 62 303 0.9 4.3 0.00 0.24 0.00 77 1020.4
20260504225304 62 310 1.7 7.0 0.00 0.24 0.00 78 1020.3
20260504224804 61 327 0.0 5.2 0.00 0.24 0.00 81 1020.3
20260504224304 60 300 0.9 5.2 0.00 0.24 0.00 84 1020.2
20260504223804 59 309 0.9 7.8 0.00 0.24 0.00 87 1020.2
20260504223304 58 311 2.6 7.8 0.00 0.24 0.00 91 1020.1
20260504220804 55 297 0.0 0.0 0.00 0.24 0.00 95 1020.3
20260504220304 55 281 0.0 0.0 0.00 0.24 0.00 95 1020.3
20260504215804 54 240 0.0 0.0 0.00 0.24 0.00 95 1020.5
20260504214804 53 240 0.0 0.0 0.00 0.24 0.00 95 1020.2
20260504212804 51 239 0.0 0.0 0.00 0.24 0.00 95 1019.9
20260504212304 51 239 0.0 0.0 0.00 0.24 0.00 95 1019.9
20260504211804 50 239 0.0 0.0 0.00 0.24 0.00 95 1019.9
20260504210804 50 239 0.0 0.0 0.00 0.24 0.00 95 1019.8
20260504205804 50 240 0.0 0.0 0.00 0.24 0.00 95 1019.6
20260504205304 49 240 0.0 0.0 0.00 0.24 0.00 95 1019.5
20260504204304 49 240 0.0 0.0 0.00 0.24 0.00 94 1019.3
20260504203804 50 240 0.0 0.0 0.00 0.24 0.00 94 1019.2
20260504203304 50 239 0.0 0.0 0.00 0.24 0.00 94 1019.2
20260504202804 50 239 0.0 0.0 0.00 0.24 0.00 94 1019.2
20260504202305 50 240 0.0 0.0 0.00 0.24 0.00 94 1019.2
20260504201304 50 239 0.0 0.0 0.00 0.24 0.00 94 1019.1
20260504200804 50 239 0.0 0.0 0.00 0.24 0.00 94 1019.0
20260504200304 50 240 0.0 0.0 0.00 0.24 0.00 94 1018.9
20260504195803 51 239 0.0 0.0 0.00 0.24 0.00 94 1018.8
20260504195304 51 239 0.0 0.0 0.00 0.24 0.00 94 1018.8
20260504194304 51 239 0.0 0.0 0.00 0.24 0.00 94 1018.7
20260504193803 51 239 0.0 0.0 0.00 0.24 0.00 94 1018.7
20260504193304 51 239 0.0 0.0 0.00 0.24 0.00 94 1018.6
20260504192304 52 240 0.0 0.0 0.00 0.24 0.00 94 1018.6
20260504191804 52 240 0.0 0.0 0.00 0.24 0.00 94 1018.6
20260504190304 53 240 0.0 0.0 0.00 0.24 0.00 94 1018.5
20260504185804 53 239 0.0 0.0 0.00 0.24 0.00 94 1018.5
20260504185304 53 240 0.0 0.0 0.00 0.24 0.00 94 1018.4
20260504184304 53 239 0.0 0.0 0.00 0.24 0.00 94 1018.1
20260504183804 53 239 0.0 0.0 0.00 0.24 0.00 94 1018.1
20260504183304 53 239 0.0 0.0 0.00 0.24 0.00 94 1018.0
20260504182804 54 239 0.0 0.0 0.00 0.24 0.00 93 1018.0
20260504182304 54 240 0.0 0.0 0.00 0.24 0.00 93 1018.0
20260504181804 54 239 0.0 0.0 0.00 0.24 0.00 93 1017.9
20260504180804 55 240 0.0 0.0 0.00 0.24 0.00 93 1017.9
20260504180304 55 239 0.0 0.0 0.00 0.24 0.00 93 1017.9
20260504175804 55 239 0.0 0.0 0.00 0.24 0.00 93 1017.9
20260504175304 55 239 0.0 0.0 0.00 0.24 0.00 93 1017.8
20260504174304 55 239 0.0 0.0 0.00 0.24 0.00 93 1017.8
20260504173803 56 239 0.0 0.0 0.00 0.24 0.00 93 1017.9
20260504173304 56 239 0.0 0.0 0.00 0.24 0.00 93 1017.9
20260504172804 56 239 0.0 0.0 0.00 0.24 0.00 93 1017.8
20260504172304 56 239 0.0 0.0 0.00 0.24 0.00 92 1017.8
20260504171804 56 239 0.0 0.0 0.00 0.24 0.00 92 1017.9
20260504170805 57 239 0.0 0.0 0.00 0.24 0.00 92 1017.9
20260504170304 57 239 0.0 0.0 0.00 0.24 0.00 91 1018.0
20260504160304 60 240 0.0 0.0 0.00 0.24 0.00 89 1018.1
20260504150804 61 263 0.0 0.0 0.00 0.24 0.00 94 1017.8
20260504150304 61 263 0.0 0.0 0.00 0.24 0.00 94 1017.9
20260504140803 62 263 0.0 0.0 0.01 0.24 0.00 95 1017.8
20260504140304 62 263 0.0 0.0 0.01 0.24 0.00 95 1017.8
20260504130303 63 318 0.0 0.0 0.00 0.24 0.24 95 1018.0
20260504120304 62 319 0.0 0.0 0.00 0.24 0.24 95 1018.0
20260504110304 62 329 0.0 0.0 0.00 0.24 0.24 94 1017.4
20260504100304 64 329 0.0 0.0 0.00 0.24 0.24 93 1016.4